Location: Zagreb
(45.8000°N, 16.0000°E)
Time: 23:23:28
(UTC+01:00)

Transit 2A Rocket - Pass Details

Date: 02 October 2020
Orbit: 586 x 916 km, 66.7° (Epoch: 27 October)

Event Time Altitude Azimuth Distance (km) Brightness Sun altitude
Rises 01:15:42 0° 328° (NNW) 3,433 8.8 -47.3°
Enters shadow 01:16:57 - 329° (NNW) 2,966 8.4 -47.3°
Reaches altitude 10° 01:18:19 10° 332° (NNW) 2,448 - -47.3°
Maximum altitude 01:23:54 62° 53° (NE) 874 - -47.0°
Drops below altitude 10° 01:28:56 10° 134° (SE) 2,214 - -46.8°
Sets 01:31:12 0° 138° (SE) 3,079 - -46.7°
